Flag for Norway Weather past 2 weeks in Bryne, Norway

Now
36 °F

Chilly.


Feels Like: 33 °F
Forecast: 38 / 42 °F
Wind: 3 mph from Northeast

Location: Obrestad

Current Time: Jan 27, 2015 at 5:15:30 AM

Latest Report: Jan 27, 2015 at 4:00 AM


Visibility: N/A

Pressure: 29.94 "Hg

Humidity: 90%

Dew point: 33 °F

Location of BryneLocation

Historic Weather in Bryne — Graph

°F

Bryne temperature yesterday

Maximum temperature yesterday: 44 °F (at 3:00 AM)
Minimum temperature yesterday: 37 °F (at 11:00 PM)
Average temperature yesterday: 42 °F

Past Weeks' High & Low Weather Summary

 TemperatureHumidityPressure
High47 °F (Jan 12, 12:00 PM)98% (Jan 26, 12:00 AM)30.24 "Hg (Jan 26, 12:00 AM)
Low25 °F (Jan 22, 9:00 AM)56% (Jan 21, 2:00 PM)28.61 "Hg (Jan 16, 3:00 AM)
Average39 °F79%29.62 "Hg
* Reported Jan 12 3:00 AM — Jan 27 3:00 AM, Bryne, Weather by CustomWeather, © 2014

Note: Actual official high and low records may vary slightly from our data, if they occured in-between our weather recording intervals... More about our weather records

Advertising

Bryne weather history for previous 24 hours

 ConditionsComfort  
Time TempWeatherWind HumidityBarometerVisibility
3:00 AM
Jan 27
35 °FChilly.3 mph91%29.94 "HgN/A
2:00 AM36 °FChilly.6 mph90%29.92 "HgN/A
1:00 AM37 °FChilly.6 mph89%29.91 "HgN/A
12:00 AM36 °FChilly.7 mph88%29.90 "HgN/A
11:00 PM
Jan 26
37 °FChilly.5 mph92%29.88 "HgN/A
9:00 PM38 °FChilly.13 mph88%29.85 "HgN/A
8:00 PM42 °FQuite cool.12 mph80%29.81 "HgN/A
7:00 PM41 °FQuite cool.13 mph85%29.79 "HgN/A
6:00 PM42 °FQuite cool.13 mph84%29.78 "HgN/A
5:00 PM41 °FQuite cool.10 mph85%29.75 "HgN/A
4:00 PM42 °FQuite cool.10 mph82%29.74 "HgN/A
3:00 PM41 °FQuite cool.9 mph88%29.73 "HgN/A
2:00 PM42 °FQuite cool.6 mph86%29.73 "HgN/A
1:00 PM40 °FQuite cool.8 mph86%29.74 "HgN/A
12:00 PM43 °FQuite cool.7 mph86%29.75 "HgN/A
11:00 AM42 °FQuite cool.7 mph87%29.75 "HgN/A
10:00 AM43 °FQuite cool.6 mph93%29.75 "HgN/A
9:00 AM43 °FQuite cool.7 mph93%29.76 "HgN/A
8:00 AM43 °FQuite cool.6 mph94%29.77 "HgN/A
7:00 AM44 °FQuite cool.7 mph96%29.78 "HgN/A
6:00 AM44 °FQuite cool.5 mph98%29.78 "HgN/A
5:00 AM44 °FQuite cool.7 mph98%29.79 "HgN/A
Weather by CustomWeather, © 2014

See weather overviewHow to use our weather pages